Location: Unspecified
(0.0000°N, 0.0000°E)
Time: 03:41:27
(UTC+00:00)

Transit 2A - Pass Details

Date: 27 September 2023
Orbit: 600 x 953 km, 66.7° (Epoch: 06 December)

Event Time Altitude Azimuth Distance (km) Brightness Sun altitude
Rises 18:13:50 0° 347° (NNW) 2,836 9.1 -5.7°
Reaches altitude 10° 18:16:05 10° 351° (N) 1,930 8.2 -6.3°
Maximum altitude 18:20:19 59° 70° (ENE) 701 5.6 -7.3°
Drops below altitude 10° 18:24:41 10° 150° (SSE) 1,992 7.9 -8.4°
Sets 18:27:02 0° 154° (SSE) 2,936 8.8 -9.0°
